Погода в Междуречье

Россия / Мурманская область     69°01′54″N   32°56′32″E
темп.,
°C
ветер,
м/с
пор.,
м/с
влажн.,
%
обл.,
%
осадки,
мм/ч
давл.,
гПа
погр.,
м
4 марта, чт
чт400:00−8сз379099 0.1 998169
03:00−7зсз239599 0.6 99976
06:00−6сз289699 0.9 999291
09:00−8всв129699 2.2 100046
12:00−7в2586100 0.7 1001492
15:00−7зсз479499 1.4 1002423
18:00−8с3595100 1.1 1003154
21:00−12зсз229593 1.5 100421
5 марта, пт
пт500:00−9ссз249692 0.9 1005148
03:00−9сз239696 1.9 100686
06:00−9сз1297100 0.8 100659
09:00−8зсз2795100 1.9 1007361
12:00−7сз3792100 0.4 1007354
15:00−6зсз5892100 0.6 1008366
18:00−8зсз61092100 0.3 1007335
21:00−12з338786 0.4 100731
6 марта, сб
сб600:00−15юз33917 0.0 100723
03:00−17юз239637 0.0 100521
06:00−16ю339799 0.0 100239
09:00−15ю459299 0.0 1000100
12:00−11ю488681 0.0 997284
15:00−10ююв378891 0.0 995295
18:00−12в2382100 0.0 99430
21:00−16всв2387100 0.0 99424
7 марта, вс
вс700:00−19всв229478 0.0 99631
03:00−19св129345 0.0 99920
06:00−18св119238 0.0 100120
09:00−18юв118619 0.0 100320
12:00−13ссв11840 0.0 100760
15:00−11с129435 0.1 1009157
18:00−12сз119793 0.2 101120
21:00−13с119796 0.6 101220
8 марта, пн
пн800:00−13з1197100 0.3 101320
03:00−14зюз1197100 0.4 101420
06:00−15юз129794 0.1 101420
09:00−17юз239782 0.1 101530
12:00−13юз369496 0.0 1015242
15:00−11юз398997 0.0 1014346
18:00−11юз51286100 0.0 1013307
21:00−10юз61585100 0.0 1011412